Volver al catálogo

SPACEWAY 2

ActivoComunicacionesGEO
NORAD 28903·PAYLOAD·🇺🇸 United States

Lanzado Nov 16, 2005 desde Guiana Space Centre

Loading…

TLE

ActualizadoSource: Space-Track

Época: Sep 14, 2026, 13:30 UTC

1 28903U 05046B   26257.56262309  .00000066  00000-0  00000-0 0  9994
2 28903   5.6964  71.0100 0004239  87.4943 267.7820  0.99062168 52152

Sigue SPACEWAY 2 en tiempo real con AllMySat

Download on the App Store